NOAA 16 DEB

Satellite information

Favourite Embed

Satellite Type and Status

DEBRISIN ORBIT

Key statistics

Satellite NOAA 16 DEB at a glance.

Uptime

9215

Days in orbit

Revolutions

≈ 14.2

Per day

Orbit

SSO

Sun Synchronous Orbit

Inclination

98.6

Latest

Satellite identification and parameters

Extended collection of information and parameters for NOAA 16 DEB.

Object identification

Identified? True

Debris? True

Object name: NOAA 16 DEB

International designator: 2000-055PK

Object number (NORAD): 41705

Object ID (CCSDS): 41705

Country: UNITED STATES OF AMERICA (US)

Current information (Y/N): Y

RCS size: SMALL

Orbital parameters

Period: 101.306 minutes

Inclination: 98.643 deg

SMA: 7198.652 km

Apoapsis: 831.637 km

Periapsis: 809.397 km

RAAN: 55.6248 deg

Eccentricy: 0.00154471

Argument of periapsis: 86.6822 deg

Mean anomaly: 273.6123 deg

Mean motion: 14.21431709 rev/day

Mean motion (dot): 0.00002104 rev/day2

B* drag term: 0.00098117784 1/REarth

Two-line elements (TLE)

Creation date: Dec. 11, 2025, 7:14 p.m.

Reference frame: TEME

Reference center: EARTH

Epoch: Dec. 11, 2025, 10:25 a.m. UTC

TLE line 0: 0 NOAA 16 DEB

TLE line 1: 1 41705U 00055PK 25345.43428520 .00002104 00000-0 98118-3 0 9991

TLE line 2: 2 41705 98.6430 55.6248 0015447 86.6822 273.6123 14.21431709498953

Live tracking on map

Real-time ground track for satellite NOAA 16 DEB.

In-orbit conjunctions

A list of the most updated potential collisions computed for object NOAA 16 DEB.

Target Orbit TCA Probability of collision Miss distance Type
CZ-6A DEB LEO 2025-02-16 01:32:41 0.0002678071 884.0 (m) DEBRIS
FENGYUN 1C DEB SSO 2024-12-15 21:00:56 0.0001934109 172.0 (m) DEBRIS
SL-16 R/B LEO 2024-09-27 14:15:35 0.0001186864 842.0 (m) ROCKET BODY

Associated space launch

The NOAA K, L and M POES satellites begin the fifth generation of improved environmental monitoring in support of NOAA missions. The instrument payload has significant improvements and additions/deletions. The instrument changes have effected the spacecraft subsystems and data formats.

NOAA 16 DEB was lifted into orbit during the mission ‘Titan II SLV | NOAA 16’, on board a Titan II SLV space rocket.

The launch took place on Sept. 21, 2000, 10:22 a.m. from Space Launch Complex 4W.

For more information about the launch, click the button.

Launch to space Titan II SLV | NOAA 16
Titan II SLV | NOAA 16

Agency: N/A

Status: Launch Successful

Launch date: Sept. 21, 2000, 10:22 a.m. UTC

Rocket: Titan II SLV

Launch pad: Space Launch Complex 4W

Location: Vandenberg SFB, CA, USA

...

Latest news about this satellite

There are no fresh news available about this satellite. Check back as we update our databases every day.


Newsletter sign-up

Weekly statistics, charts and insights to help you stay on top of the space industry.